This is the latest recevied weather packets stored in our database for station/object OM6ACB-6. If no packets are shown the sender has not sent any weather packets the latest 10 day(s).
| Time | Temp. | Humidity | Pressure | Rain* | Wind** | Luminosity | Snow |
|---|---|---|---|---|---|---|---|
| 1788190366 | 23.33° C | 21% | 1019.2 hPa | 0 mm | - | - | - |
| 1788189765 | 23.33° C | 21% | 1019.2 hPa | 0 mm | - | - | - |
| 1788189165 | 25.56° C | 20% | 1019.7 hPa | 0 mm | - | - | - |
| 1788188565 | 25° C | 20% | 1019.7 hPa | 0.25 mm | - | - | - |
| 1788187965 | 25° C | 20% | 1019.8 hPa | 0.25 mm | - | - | - |
| 1788187365 | 25.56° C | 20% | 1019.7 hPa | 0.25 mm | - | - | - |
| 1788186764 | 23.33° C | 21% | 1019.5 hPa | 0.25 mm | - | - | - |
| 1788186164 | 22.22° C | 21% | 1019.5 hPa | 0.25 mm | - | - | - |
| 1788185563 | 22.22° C | 22% | 1019.4 hPa | 0 mm | - | - | - |
| 1788184963 | 25° C | 20% | 1019.5 hPa | 0 mm | - | - | - |
| 1788184363 | 27.78° C | 20% | 1019.8 hPa | 0 mm | - | - | - |
| 1788183762 | 27.78° C | 20% | 1019.8 hPa | 0 mm | - | - | - |
| 1788183162 | 28.33° C | 20% | 1019.9 hPa | 0 mm | - | - | - |
| 1788182562 | 28.33° C | 20% | 1019.9 hPa | 0 mm | - | - | - |
| 1788181962 | 29.44° C | 20% | 1020.1 hPa | 0 mm | - | - | - |
| 1788181361 | 29.44° C | 20% | 1020.3 hPa | 0 mm | - | - | - |
| 1788180761 | 29.44° C | 20% | 1020.2 hPa | 0 mm | - | - | - |
| 1788180161 | 30.56° C | 20% | 1020.4 hPa | 0 mm | - | - | - |
| 1788179560 | 32.22° C | 20% | 1020.9 hPa | 0 mm | - | - | - |
| 1788178960 | 31.11° C | 20% | 1020.7 hPa | 0 mm | - | - | - |
| 1788178360 | 32.78° C | 20% | 1021.1 hPa | 0 mm | - | - | - |
| 1788177760 | 30° C | 20% | 1020.9 hPa | 0 mm | - | - | - |
| 1788177159 | 29.44° C | 20% | 1020.9 hPa | 0 mm | - | - | - |
| 1788176559 | 30.56° C | 20% | 1021.1 hPa | 0 mm | - | - | - |
| 1788175959 | 28.89° C | 20% | 1020.9 hPa | 0 mm | - | - | - |
* Rain latest hour (hover to see other rain measurements)
** Current wind speed in m/s (hover to see current wind gust speed)